Location: Bruderhein
(53.8035°N, 112.9265°W)
Time: 01:22:29
(UTC+00:00)

STRAND 1 - Pass Details

Date: 04 April 2023
Orbit: 767 x 779 km, 98.4° (Epoch: 31 May)

Event Time Altitude Azimuth Distance (km) Brightness Sun altitude
Rises 03:23:38 0° 12° (NNE) 3,255 ? -11.0°
Reaches altitude 10° 03:26:01 10° 6° (N) 2,323 ? -11.3°
Maximum altitude 03:30:51 44° 295° (WNW) 1,058 ? -11.9°
Drops below altitude 10° 03:35:39 10° 225° (SW) 2,307 ? -12.5°
Sets 03:38:02 0° 219° (SW) 3,230 ? -12.9°
